sat.trackr.live / text

‹ back to catalog

STARLINK-32945

NORAD 63118 · 2025-039Q

PAYLOAD ACTIVE UNKNOWN

§ Identity

Operator
Country
US
Launch date
2025-02-27
Launch site
AFETR
Launch vehicle
Mass (kg)
RCS (m²)

Purposes: comms

External: N2YO · Heavens-Above · Gunter

§ Orbital elements

Epoch: 2026-09-20T07:29:33.939168Z

Period
94.27 min
Inclination
43.0024°
Eccentricity
0.0001686
Mean motion
15.27583575 rev/d
Perigee alt
481.9 km
Apogee alt
484.2 km
Semi-major
6,861.2 km
B*
3.1886e-4
RAAN
353.4911°
Arg perigee
274.2578°
Mean anomaly
85.8081°
Rev number
8,783

§ Raw data

STARLINK-329451 63118U 25039Q   26263.31219837  .00008523  00000+0  31886-3 0  99972 63118  43.0024 353.4911 0001686 274.2578  85.8081 15.27583575 87830

JSON: /api/v1/satellites/63118 · /tle

For live sub-satellite position, see the globe view (requires WebGL).

§ Visibility from observer

Set your observer location to see the next 7 days of passes ≥ 10°. The values pass through the URL so the page stays shareable.

No JS? Fill the form by hand. The geolocation button needs JavaScript.